Regional Weather Roundup
Issued by NWS

Home | Current Version | Previous Version | Graphics & Text | Print | Product List | Glossary On
Versions: 1 2 3 4 5 6 7 8 9 10 11 12 13 14 15 16 17 18 19 20 21 22 23 24 25 26 27 28 29 30 31 32 33 34 35 36 37 38 39 40 41 42 43 44 45 46 47 48 49 50
000
ASUS43 KBIS 092310
RWRND

NORTH DAKOTA REGIONAL WEATHER ROUNDUP
NATIONAL WEATHER SERVICE BISMARCK ND
500 PM CST TUE FEB 09 2016

NOTE: "FAIR" INDICATES FEW OR NO CLOUDS BELOW 12,000 FEET WITH NO
SIGNIFICANT WEATHER AND/OR OBSTRUCTIONS TO VISIBILITY.


NDZ001>003-009>011-017-100000-
NORTHWEST NORTH DAKOTA

CITY           SKY/WX    TMP DP  RH WIND       PRES   REMARKS
WILLISTON      CLOUDY    38  23  55 SE3       30.10F
MINOT          CLOUDY    37  17  44 N9        30.14R
MINOT AFB      CLOUDY    32  22  68 E10       30.13S
$$

NDZ018>021-031>035-040>046-100000-
SOUTHWEST NORTH DAKOTA

CITY           SKY/WX    TMP DP  RH WIND       PRES   REMARKS
BISMARCK       CLOUDY    40  18  41 NW5       30.14S
DICKINSON      CLOUDY    39  20  46 N6        30.08F
GARRISON         N/A     35  19  52 NE7       30.13R
HETTINGER ARPT CLOUDY    43  24  47 NW8       30.11S
$$

NDZ004>008-012>016-024-026-027-054-100000-
NORTHEAST NORTH DAKOTA

CITY           SKY/WX    TMP DP  RH WIND       PRES   REMARKS
GRAND FORKS    CLOUDY    11   2  67 N13       30.29R WCI  -4
GRND FRKS AFB  CLOUDY    10   1  67 N10       30.28S WCI  -3
DEVILS LAKE    CLEAR     13   7  77 NE12      30.22S WCI  -1
$$

NDZ022-023-025-028>030-036>039-047>053-100000-
SOUTHEAST NORTH DAKOTA

CITY           SKY/WX    TMP DP  RH WIND       PRES   REMARKS
FARGO          CLOUDY    13   5  70 N12       30.26S WCI  -1
JAMESTOWN      CLOUDY    22  10  60 E8        30.18S WCI  12
$$




USA.gov is the U.S. government's official web portal to all federal, state and local government web resources and services.